EUTELSAT 36D

Last updated on Sun Jul 06 2025 00:02:47 GMT+0000 (Coordinated Universal Time)

1 59346U 24059A 25186.57192844 .00000172 00000+0 00000+0 0 9997 2 59346 0.0109 321.9254 0000487 187.8118 15.8106 1.00271086 4671
UTC large
Height (km)
Speed (km/s)
/
Latitude / Longitude
Inclination (degrees)
Orbital Period (minutes)
Azimuth
Elevation
Range (km)
Doppler Factor

Next 0 passes for location: London (51.5072 / 0.1276)

Sorry there are no passes over London.